Voltar ao catálogo

COSMOS 1634

AtivoMilitarPO
NORAD 15597·PAYLOAD·🇷🇺 Russia

Lançado Mar 14, 1985 de Plesetsk Cosmodrome

Loading…

Próximas Passagens (próximas 24 horas)

TLE

AtualizadoSource: Space-Track

Época: Sep 14, 2026, 16:38 UTC

1 15597U 85022A   26257.69369280  .00000074  00000-0  60612-4 0  9999
2 15597  82.9422 149.3544 0036150 144.8731 244.6801 13.75333740 82505

Acompanhe COSMOS 1634 em tempo real com AllMySat

Download on the App Store